^^
B2 Weather Station Historical Data
Daily Summary for November 15, 2018 Units:  English    Metric   Both
Daily Weekly Monthly Yearly Custom
  High: Low: Average:
Temperature: 33.6 °F 25.4 °F 29.5 °F
Dew Point: 31.0 °F 23.4 °F 27.1 °F
Humidity: 94% 83% 91%
Wind Speed: 14.0mph 0.0mph 5.1mph
Wind Gust: 8.2mph - -
Wind- - SE
Pressure: 30.34 in 29.92 in -
Precipitation: 0.13 in    
Historical Graphs
 
 
Tabular Data for November 15, 2018
Time Temperature Dew Point Pressure Wind Wind Speed Wind Gust Humidity Rainfall Rate (Hourly) solar
00:04 27.7 °F 25.2 °F 30.34 in NE 2.3 mph 1.1 mph 90% 0.00 in 0.00 W/m2
00:10 27.7 °F 25.2 °F 30.34 in NE 3.5 mph 1.5 mph 90% 0.00 in 0.00 W/m2
00:14 27.8 °F 25.2 °F 30.34 in NE 4.0 mph 3.2 mph 90% 0.00 in 0.00 W/m2
00:19 27.8 °F 25.2 °F 30.34 in North 5.0 mph 2.6 mph 90% 0.00 in 0.00 W/m2
00:24 27.9 °F 25.3 °F 30.33 in ENE 3.5 mph 2.8 mph 90% 0.00 in 0.00 W/m2
00:29 28.0 °F 25.4 °F 30.33 in NNE 5.0 mph 3.9 mph 90% 0.00 in 0.00 W/m2
00:35 28.1 °F 25.5 °F 30.32 in NE 5.8 mph 4.1 mph 90% 0.00 in 0.00 W/m2
00:40 28.1 °F 25.3 °F 30.32 in NE 6.0 mph 4.8 mph 89% 0.00 in 0.00 W/m2
00:44 28.2 °F 25.6 °F 30.31 in NE 5.8 mph 4.4 mph 90% 0.00 in 0.00 W/m2
00:49 28.2 °F 25.4 °F 30.31 in ENE 8.1 mph 4.7 mph 89% 0.00 in 0.00 W/m2
00:54 28.3 °F 25.5 °F 30.31 in ENE 8.1 mph 4.6 mph 89% 0.00 in 0.00 W/m2
00:59 28.3 °F 25.5 °F 30.31 in ENE 7.0 mph 5.6 mph 89% 0.00 in 0.00 W/m2
01:04 28.3 °F 25.5 °F 30.31 in ENE 9.2 mph 4.6 mph 89% 0.00 in 0.00 W/m2
01:09 28.4 °F 25.3 °F 30.30 in ENE 8.0 mph 4.9 mph 88% 0.00 in 0.00 W/m2
01:14 28.5 °F 25.4 °F 30.30 in East 6.9 mph 4.4 mph 88% 0.00 in 0.00 W/m2
01:19 28.5 °F 25.4 °F 30.30 in East 8.0 mph 5.3 mph 88% 0.00 in 0.00 W/m2
01:24 28.5 °F 25.4 °F 30.29 in ENE 9.2 mph 5.7 mph 88% 0.00 in 0.00 W/m2
01:29 28.5 °F 25.4 °F 30.29 in East 8.1 mph 6.1 mph 88% 0.00 in 0.00 W/m2
01:35 28.6 °F 25.2 °F 30.29 in ENE 8.1 mph 6.3 mph 87% 0.00 in 0.00 W/m2
01:39 28.6 °F 25.2 °F 30.28 in ESE 10.4 mph 7.1 mph 87% 0.00 in 0.00 W/m2
01:44 28.7 °F 25.0 °F 30.28 in East 10.4 mph 6.7 mph 86% 0.00 in 0.00 W/m2
01:49 28.7 °F 25.0 °F 30.28 in ENE 7.0 mph 5.2 mph 86% 0.00 in 0.00 W/m2
01:54 28.8 °F 25.1 °F 30.28 in East 8.1 mph 6.6 mph 86% 0.00 in 0.00 W/m2
01:59 28.7 °F 24.8 °F 30.27 in East 9.2 mph 6.4 mph 85% 0.00 in 0.00 W/m2
02:05 28.7 °F 24.8 °F 30.27 in ENE 6.9 mph 4.7 mph 85% 0.00 in 0.00 W/m2
02:09 28.7 °F 25.0 °F 30.26 in ENE 6.9 mph 6.1 mph 86% 0.00 in 0.00 W/m2
02:15 28.7 °F 24.8 °F 30.26 in East 8.1 mph 6.3 mph 85% 0.00 in 0.00 W/m2
02:19 28.7 °F 24.8 °F 30.27 in ENE 8.1 mph 5.9 mph 85% 0.00 in 0.00 W/m2
02:25 28.7 °F 24.8 °F 30.26 in ENE 7.0 mph 5.6 mph 85% 0.00 in 0.00 W/m2
02:29 28.7 °F 24.8 °F 30.26 in ENE 9.2 mph 6.3 mph 85% 0.00 in 0.00 W/m2
02:35 28.7 °F 24.5 °F 30.26 in ENE 8.1 mph 6.1 mph 84% 0.00 in 0.00 W/m2
02:39 28.8 °F 24.6 °F 30.26 in ENE 8.1 mph 6.1 mph 84% 0.00 in 0.00 W/m2
02:44 28.8 °F 24.6 °F 30.26 in ENE 8.0 mph 6.3 mph 84% 0.00 in 0.00 W/m2
02:49 28.8 °F 24.6 °F 30.26 in ENE 8.1 mph 5.1 mph 84% 0.00 in 0.00 W/m2
02:54 28.8 °F 24.6 °F 30.26 in ENE 10.4 mph 6.1 mph 84% 0.00 in 0.00 W/m2
02:59 28.8 °F 24.6 °F 30.26 in ENE 9.2 mph 6.8 mph 84% 0.00 in 0.00 W/m2
03:04 28.9 °F 24.4 °F 30.26 in East 9.2 mph 4.5 mph 83% 0.00 in 0.00 W/m2
03:10 28.9 °F 24.4 °F 30.25 in ENE 8.1 mph 5.5 mph 83% 0.00 in 0.00 W/m2
03:15 28.9 °F 24.4 °F 30.25 in ENE 9.2 mph 6.3 mph 83% 0.00 in 0.00 W/m2
03:19 28.9 °F 24.4 °F 30.25 in East 9.2 mph 5.8 mph 83% 0.00 in 0.00 W/m2
03:24 28.8 °F 24.3 °F 30.25 in ENE 10.4 mph 5.4 mph 83% 0.00 in 0.00 W/m2
03:29 28.7 °F 24.5 °F 30.25 in East 4.6 mph 3.0 mph 84% 0.00 in 0.00 W/m2
03:34 28.6 °F 24.4 °F 30.25 in East 6.9 mph 4.2 mph 84% 0.00 in 0.00 W/m2
03:39 28.5 °F 24.6 °F 30.24 in ENE 4.0 mph 4.2 mph 85% 0.00 in 0.00 W/m2
03:45 28.4 °F 24.5 °F 30.24 in ENE 8.1 mph 5.9 mph 85% 0.00 in 0.00 W/m2
03:49 28.3 °F 24.6 °F 30.23 in ENE 6.9 mph 4.7 mph 86% 0.00 in 0.00 W/m2
03:54 28.3 °F 24.6 °F 30.23 in ENE 3.5 mph 3.9 mph 86% 0.00 in 0.00 W/m2
03:59 28.2 °F 24.8 °F 30.23 in ENE 6.9 mph 4.1 mph 87% 0.00 in 0.00 W/m2
04:04 28.1 °F 25.0 °F 30.23 in ENE 7.0 mph 5.5 mph 88% 0.00 in 0.00 W/m2
04:09 28.0 °F 24.9 °F 30.23 in ENE 6.9 mph 3.6 mph 88% 0.00 in 0.00 W/m2
04:14 28.0 °F 24.9 °F 30.23 in ENE 5.0 mph 4.2 mph 88% 0.00 in 0.00 W/m2
04:19 27.9 °F 25.1 °F 30.23 in ENE 4.6 mph 3.4 mph 89% 0.00 in 0.00 W/m2
04:24 27.9 °F 25.1 °F 30.23 in ENE 5.0 mph 3.3 mph 89% 0.00 in 0.00 W/m2
04:30 27.8 °F 25.0 °F 30.22 in ENE 3.5 mph 3.7 mph 89% 0.00 in 0.00 W/m2
04:34 27.8 °F 25.0 °F 30.22 in North 6.0 mph 6.0 mph 89% 0.00 in 0.00 W/m2
04:40 27.7 °F 25.2 °F 30.21 in NE 4.6 mph 4.3 mph 90% 0.01 in 0.00 W/m2
04:44 27.6 °F 25.1 °F 30.21 in NE 7.0 mph 4.3 mph 90% 0.01 in 0.00 W/m2
04:49 27.5 °F 25.0 °F 30.21 in NE 3.5 mph 3.7 mph 90% 0.01 in 0.00 W/m2
04:54 27.4 °F 25.1 °F 30.21 in NE 4.6 mph 3.6 mph 91% 0.01 in 0.00 W/m2
04:59 27.3 °F 25.0 °F 30.21 in North 7.0 mph 3.8 mph 91% 0.02 in 0.00 W/m2
05:05 27.3 °F 25.0 °F 30.21 in NNE 5.8 mph 4.2 mph 91% 0.02 in 0.00 W/m2
05:09 27.2 °F 24.9 °F 30.21 in NE 5.8 mph 3.7 mph 91% 0.02 in 0.00 W/m2
05:14 27.2 °F 25.2 °F 30.20 in NNE 5.8 mph 4.4 mph 92% 0.03 in 0.00 W/m2
05:19 27.2 °F 25.2 °F 30.20 in NNE 5.8 mph 4.0 mph 92% 0.03 in 0.00 W/m2
05:25 27.2 °F 25.2 °F 30.20 in NE 5.8 mph 3.7 mph 92% 0.04 in 0.00 W/m2
05:30 27.2 °F 25.2 °F 30.20 in NE 5.8 mph 4.1 mph 92% 0.04 in 0.00 W/m2
05:34 27.2 °F 25.2 °F 30.20 in NE 5.8 mph 4.8 mph 92% 0.04 in 0.00 W/m2
05:39 27.2 °F 25.2 °F 30.19 in NE 5.8 mph 3.6 mph 92% 0.04 in 0.00 W/m2
05:44 27.2 °F 25.2 °F 30.19 in NNE 5.8 mph 4.2 mph 92% 0.04 in 0.00 W/m2
05:50 27.1 °F 25.1 °F 30.18 in NNE 6.9 mph 4.9 mph 92% 0.04 in 0.00 W/m2
05:54 27.0 °F 25.0 °F 30.18 in North 6.0 mph 4.2 mph 92% 0.04 in 0.00 W/m2
05:59 27.0 °F 25.0 °F 30.18 in NE 8.1 mph 5.7 mph 92% 0.03 in 0.00 W/m2
06:05 26.9 °F 24.9 °F 30.18 in NNE 5.8 mph 4.0 mph 92% 0.03 in 0.00 W/m2
06:09 26.9 °F 24.9 °F 30.18 in NE 6.9 mph 6.5 mph 92% 0.03 in 0.00 W/m2
06:14 27.0 °F 25.2 °F 30.17 in NNE 7.0 mph 6.5 mph 93% 0.02 in 0.00 W/m2
06:19 27.0 °F 25.2 °F 30.17 in NE 10.4 mph 5.6 mph 93% 0.03 in 0.00 W/m2
06:25 27.0 °F 25.2 °F 30.18 in NE 9.2 mph 6.1 mph 93% 0.02 in 0.00 W/m2
06:29 26.9 °F 25.1 °F 30.17 in NE 10.4 mph 6.7 mph 93% 0.02 in 0.00 W/m2
06:35 26.9 °F 25.1 °F 30.14 in NE 11.5 mph 8.0 mph 93% 0.02 in 0.00 W/m2
06:39 26.9 °F 25.1 °F 30.14 in NNE 10.4 mph 7.3 mph 93% 0.01 in 0.00 W/m2
06:44 26.9 °F 25.1 °F 30.15 in NNE 10.4 mph 6.2 mph 93% 0.01 in 0.00 W/m2
06:50 27.0 °F 25.2 °F 30.14 in NNE 11.5 mph 7.6 mph 93% 0.02 in 0.00 W/m2
06:55 27.0 °F 25.2 °F 30.15 in NNE 8.1 mph 6.3 mph 93% 0.02 in 0.00 W/m2
06:59 27.0 °F 25.2 °F 30.15 in NE 9.2 mph 5.3 mph 93% 0.02 in 0.00 W/m2
07:05 27.1 °F 25.3 °F 30.17 in ENE 8.1 mph 5.7 mph 93% 0.02 in 5.00 W/m2
07:10 27.1 °F 25.3 °F 30.16 in NE 8.1 mph 4.4 mph 93% 0.02 in 12.00 W/m2
07:15 27.1 °F 25.3 °F 30.16 in ENE 9.2 mph 6.5 mph 93% 0.01 in 23.00 W/m2
07:20 27.2 °F 25.4 °F 30.14 in NE 8.1 mph 5.3 mph 93% 0.02 in 14.00 W/m2
07:25 27.2 °F 25.4 °F 30.15 in ENE 8.1 mph 5.5 mph 93% 0.02 in 11.00 W/m2
07:29 27.2 °F 25.4 °F 30.15 in ENE 6.9 mph 5.8 mph 93% 0.02 in 16.00 W/m2
07:34 27.2 °F 25.4 °F 30.15 in ENE 7.0 mph 3.8 mph 93% 0.02 in 14.00 W/m2
07:39 27.2 °F 25.4 °F 30.15 in ENE 6.9 mph 5.5 mph 93% 0.03 in 25.00 W/m2
07:45 27.3 °F 25.5 °F 30.14 in NE 5.8 mph 4.1 mph 93% 0.03 in 28.00 W/m2
07:49 27.4 °F 25.6 °F 30.14 in NE 4.0 mph 4.6 mph 93% 0.02 in 28.00 W/m2
07:54 27.5 °F 25.7 °F 30.14 in NE 5.8 mph 4.5 mph 93% 0.03 in 33.00 W/m2
07:59 27.6 °F 25.8 °F 30.14 in NE 5.0 mph 4.8 mph 93% 0.03 in 44.00 W/m2
08:04 27.7 °F 25.9 °F 30.14 in NE 4.6 mph 4.4 mph 93% 0.03 in 46.00 W/m2
08:10 27.8 °F 26.0 °F 30.13 in NE 5.8 mph 4.2 mph 93% 0.03 in 51.00 W/m2
08:14 27.9 °F 26.1 °F 30.13 in NE 4.6 mph 3.6 mph 93% 0.03 in 63.00 W/m2
08:19 28.1 °F 26.3 °F 30.13 in NE 5.0 mph 3.0 mph 93% 0.03 in 56.00 W/m2
08:25 28.3 °F 26.5 °F 30.14 in ENE 4.6 mph 3.4 mph 93% 0.03 in 74.00 W/m2
08:29 28.5 °F 27.0 °F 30.14 in NE 5.8 mph 3.4 mph 94% 0.03 in 86.00 W/m2
08:35 28.8 °F 27.0 °F 30.14 in ENE 4.6 mph 3.3 mph 93% 0.04 in 90.00 W/m2
08:39 28.9 °F 27.1 °F 30.14 in ENE 6.9 mph 3.5 mph 93% 0.03 in 63.00 W/m2
08:44 28.9 °F 27.1 °F 30.14 in NNE 5.8 mph 3.4 mph 93% 0.04 in 74.00 W/m2
08:50 28.9 °F 27.1 °F 30.13 in NE 4.6 mph 3.2 mph 93% 0.04 in 70.00 W/m2
08:55 29.1 °F 27.3 °F 30.13 in ENE 3.5 mph 2.9 mph 93% 0.03 in 72.00 W/m2
08:59 29.1 °F 27.3 °F 30.13 in ENE 3.5 mph 2.8 mph 93% 0.03 in 62.00 W/m2
09:05 29.0 °F 27.2 °F 30.14 in NE 4.6 mph 4.2 mph 93% 0.03 in 51.00 W/m2
09:10 29.0 °F 27.2 °F 30.13 in NE 6.9 mph 5.6 mph 93% 0.03 in 77.00 W/m2
09:15 29.0 °F 27.2 °F 30.13 in ENE 3.5 mph 2.9 mph 93% 0.02 in 123.00 W/m2
09:20 29.3 °F 27.5 °F 30.13 in ENE 3.5 mph 2.8 mph 93% 0.02 in 142.00 W/m2
09:25 29.6 °F 28.1 °F 30.13 in ENE 3.5 mph 2.1 mph 94% 0.02 in 227.00 W/m2
09:29 29.9 °F 28.1 °F 30.12 in ENE 3.5 mph 1.9 mph 93% 0.02 in 283.00 W/m2
09:35 30.4 °F 28.9 °F 30.12 in NE 3.5 mph 1.3 mph 94% 0.01 in 272.00 W/m2
09:39 30.6 °F 28.8 °F 30.12 in ENE 3.5 mph 1.9 mph 93% 0.01 in 220.00 W/m2
09:45 30.7 °F 28.9 °F 30.12 in ENE 2.3 mph 1.1 mph 93% 0.00 in 220.00 W/m2
09:49 30.8 °F 29.0 °F 30.12 in Calm     93% 0.00 in 218.00 W/m2
09:54 30.8 °F 29.0 °F 30.11 in Calm     93% 0.00 in 267.00 W/m2
09:59 30.9 °F 29.1 °F 30.11 in Calm     93% 0.00 in 276.00 W/m2
10:04 31.0 °F 29.2 °F 30.11 in Calm     93% 0.00 in 279.00 W/m2
10:09 31.0 °F 29.2 °F 30.10 in Calm     93% 0.00 in 274.00 W/m2
10:14 31.1 °F 29.3 °F 30.11 in Calm     93% 0.00 in 253.00 W/m2
10:19 31.0 °F 29.2 °F 30.10 in Calm     93% 0.00 in 250.00 W/m2
10:24 31.1 °F 29.3 °F 30.10 in Calm     93% 0.00 in 239.00 W/m2
10:29 31.1 °F 29.3 °F 30.09 in Calm     93% 0.00 in 253.00 W/m2
10:34 31.2 °F 29.4 °F 30.09 in Calm     93% 0.00 in 295.00 W/m2
10:40 31.3 °F 29.5 °F 30.09 in Calm     93% 0.00 in 292.00 W/m2
10:44 31.6 °F 29.8 °F 30.09 in Calm     93% 0.00 in 285.00 W/m2
10:49 31.7 °F 29.9 °F 30.09 in Calm     93% 0.00 in 290.00 W/m2
10:54 31.7 °F 29.9 °F 30.08 in Calm     93% 0.00 in 283.00 W/m2
10:59 31.8 °F 30.0 °F 30.08 in Calm     93% 0.00 in 267.00 W/m2
11:04 31.9 °F 30.1 °F 30.08 in Calm     93% 0.00 in 276.00 W/m2
11:10 31.9 °F 29.8 °F 30.08 in Calm     92% 0.00 in 274.00 W/m2
11:14 31.8 °F 29.7 °F 30.07 in Calm     92% 0.00 in 253.00 W/m2
11:20 31.8 °F 29.7 °F 30.07 in Calm     92% 0.00 in 230.00 W/m2
11:24 31.8 °F 29.7 °F 30.07 in Calm     92% 0.00 in 223.00 W/m2
11:29 31.9 °F 29.8 °F 30.07 in Calm     92% 0.00 in 220.00 W/m2
11:34 32.0 °F 29.9 °F 30.06 in Calm     92% 0.00 in 232.00 W/m2
11:39 31.9 °F 29.8 °F 30.06 in Calm     92% 0.00 in 241.00 W/m2
11:44 32.0 °F 29.9 °F 30.06 in Calm     92% 0.00 in 220.00 W/m2
11:50 32.1 °F 30.0 °F 30.05 in Calm     92% 0.00 in 225.00 W/m2
11:54 32.0 °F 29.9 °F 30.05 in Calm     92% 0.00 in 237.00 W/m2
11:59 32.1 °F 30.0 °F 30.05 in Calm     92% 0.00 in 223.00 W/m2
12:04 32.1 °F 29.8 °F 30.04 in Calm     91% 0.00 in 251.00 W/m2
12:09 32.1 °F 29.8 °F 30.04 in Calm     91% 0.00 in 237.00 W/m2
12:15 32.3 °F 30.2 °F 30.04 in Calm     92% 0.00 in 229.00 W/m2
12:20 32.3 °F 30.0 °F 30.04 in Calm     91% 0.00 in 209.00 W/m2
12:24 32.4 °F 30.1 °F 30.04 in Calm     91% 0.00 in 209.00 W/m2
12:29 32.3 °F 30.0 °F 30.04 in Calm     91% 0.00 in 193.00 W/m2
12:34 32.4 °F 30.1 °F 30.03 in Calm     91% 0.00 in 199.00 W/m2
12:40 32.5 °F 30.2 °F 30.03 in Calm     91% 0.00 in 202.00 W/m2
12:45 32.5 °F 30.2 °F 30.03 in Calm     91% 0.00 in 206.00 W/m2
12:49 32.5 °F 30.2 °F 30.03 in Calm     91% 0.00 in 197.00 W/m2
12:54 32.6 °F 30.3 °F 30.02 in Calm     91% 0.00 in 195.00 W/m2
12:59 32.8 °F 30.5 °F 30.02 in Calm     91% 0.00 in 193.00 W/m2
13:04 33.0 °F 30.7 °F 30.02 in Calm     91% 0.00 in 209.00 W/m2
13:10 33.2 °F 30.9 °F 30.03 in Calm     91% 0.00 in 183.00 W/m2
13:14 33.5 °F 30.9 °F 30.02 in Calm     90% 0.00 in 178.00 W/m2
13:19 33.6 °F 31.0 °F 30.02 in Calm     90% 0.00 in 186.00 W/m2
13:25 33.6 °F 30.7 °F 30.02 in Calm     89% 0.00 in 216.00 W/m2
13:29 33.5 °F 30.6 °F 30.01 in Calm     89% 0.00 in 216.00 W/m2
13:35 33.5 °F 30.6 °F 30.01 in Calm     89% 0.00 in 211.00 W/m2
13:39 33.4 °F 30.5 °F 30.01 in Calm     89% 0.00 in 216.00 W/m2
13:44 33.4 °F 30.5 °F 30.01 in Calm     89% 0.00 in 211.00 W/m2
13:50 33.3 °F 30.4 °F 30.00 in Calm     89% 0.00 in 202.00 W/m2
13:55 33.2 °F 30.6 °F 30.00 in Calm     90% 0.00 in 206.00 W/m2
13:59 33.0 °F 30.4 °F 30.00 in Calm     90% 0.00 in 207.00 W/m2
14:04 32.9 °F 30.3 °F 30.00 in Calm     90% 0.00 in 188.00 W/m2
14:10 32.8 °F 30.2 °F 30.00 in Calm     90% 0.00 in 197.00 W/m2
14:14 32.7 °F 30.4 °F 30.00 in Calm     91% 0.00 in 193.00 W/m2
14:20 32.6 °F 30.3 °F 29.99 in Calm     91% 0.00 in 156.00 W/m2
14:25 32.6 °F 30.3 °F 29.99 in Calm     91% 0.00 in 165.00 W/m2
14:30 32.6 °F 30.3 °F 29.99 in Calm     91% 0.00 in 183.00 W/m2
14:35 32.8 °F 30.5 °F 29.99 in Calm     91% 0.00 in 274.00 W/m2
14:39 33.0 °F 30.7 °F 29.99 in Calm     91% 0.00 in 199.00 W/m2
14:44 33.0 °F 30.4 °F 29.99 in Calm     90% 0.00 in 121.00 W/m2
14:50 32.8 °F 30.2 °F 29.99 in Calm     90% 0.00 in 113.00 W/m2
14:55 32.8 °F 30.2 °F 29.99 in Calm     90% 0.00 in 123.00 W/m2
14:59 32.9 °F 30.3 °F 29.99 in Calm     90% 0.00 in 102.00 W/m2
15:05 33.0 °F 30.4 °F 29.99 in Calm     90% 0.00 in 74.00 W/m2
15:09 33.0 °F 30.4 °F 29.99 in Calm     90% 0.00 in 113.00 W/m2
15:15 33.0 °F 30.4 °F 29.99 in Calm     90% 0.00 in 250.00 W/m2
15:20 33.3 °F 30.7 °F 29.99 in Calm     90% 0.00 in 120.00 W/m2
15:25 33.1 °F 30.2 °F 30.00 in Calm     89% 0.00 in 51.00 W/m2
15:30 32.9 °F 29.7 °F 30.00 in WSW 3.5 mph 1.6 mph 88% 0.00 in 25.00 W/m2
15:34 32.7 °F 29.8 °F 30.00 in SW 1.2 mph 0.1 mph 89% 0.00 in 51.00 W/m2
15:39 32.6 °F 29.7 °F 30.00 in WSW 3.5 mph 3.6 mph 89% 0.00 in 62.00 W/m2
15:44 32.4 °F 29.2 °F 30.00 in WSW 7.0 mph 4.9 mph 88% 0.00 in 54.00 W/m2
15:49 32.1 °F 28.9 °F 30.00 in North 6.9 mph 3.9 mph 88% 0.00 in 47.00 W/m2
15:54 32.1 °F 29.2 °F 30.00 in SW 3.5 mph 1.7 mph 89% 0.00 in 60.00 W/m2
15:59 32.1 °F 29.2 °F 30.00 in WSW 6.9 mph 3.1 mph 89% 0.00 in 39.00 W/m2
16:04 31.9 °F 29.0 °F 30.00 in WSW 6.0 mph 3.2 mph 89% 0.00 in 18.00 W/m2
16:09 31.7 °F 28.8 °F 30.00 in North 6.9 mph 4.7 mph 89% 0.00 in 12.00 W/m2
16:14 31.6 °F 28.7 °F 29.99 in SSW 4.6 mph 2.0 mph 89% 0.00 in 11.00 W/m2
16:19 31.6 °F 28.7 °F 29.99 in SSW 3.5 mph 1.2 mph 89% 0.00 in 5.00 W/m2
16:25 31.5 °F 28.6 °F 29.99 in SW 4.6 mph 2.8 mph 89% 0.00 in 0.00 W/m2
16:30 31.3 °F 28.7 °F 29.99 in SW 5.8 mph 2.3 mph 90% 0.00 in 0.00 W/m2
16:35 31.2 °F 28.6 °F 30.00 in WSW 6.9 mph 4.7 mph 90% 0.00 in 0.00 W/m2
16:40 30.9 °F 28.3 °F 30.00 in WSW 4.6 mph 3.7 mph 90% 0.00 in 0.00 W/m2
16:44 30.8 °F 28.2 °F 30.00 in SW 6.9 mph 4.8 mph 90% 0.00 in 0.00 W/m2
16:49 30.6 °F 28.0 °F 30.00 in West 8.1 mph 4.3 mph 90% 0.00 in 0.00 W/m2
16:54 30.4 °F 27.8 °F 30.00 in SSW 8.1 mph 2.8 mph 90% 0.00 in 0.00 W/m2
16:59 30.4 °F 27.8 °F 30.00 in SW 6.9 mph 3.2 mph 90% 0.00 in 0.00 W/m2
17:04 30.3 °F 27.7 °F 30.00 in WSW 9.2 mph 6.9 mph 90% 0.00 in 0.00 W/m2
17:09 30.2 °F 27.6 °F 30.00 in SW 5.8 mph 1.7 mph 90% 0.00 in 0.00 W/m2
17:14 30.2 °F 27.6 °F 30.00 in SW 5.8 mph 4.0 mph 90% 0.00 in 0.00 W/m2
17:19 30.2 °F 27.6 °F 30.00 in SW 5.8 mph 3.2 mph 90% 0.00 in 0.00 W/m2
17:25 30.2 °F 27.6 °F 30.00 in North 3.5 mph 2.5 mph 90% 0.00 in 0.00 W/m2
17:30 30.2 °F 27.6 °F 30.00 in SW 4.0 mph 4.0 mph 90% 0.00 in 0.00 W/m2
17:35 30.2 °F 27.9 °F 30.00 in South 4.6 mph 2.5 mph 91% 0.00 in 0.00 W/m2
17:39 30.2 °F 27.9 °F 30.00 in SSW 3.5 mph 2.7 mph 91% 0.00 in 0.00 W/m2
17:44 30.2 °F 27.9 °F 30.00 in SSW 3.5 mph 2.2 mph 91% 0.00 in 0.00 W/m2
17:49 30.1 °F 27.8 °F 30.00 in SW 6.0 mph 3.7 mph 91% 0.00 in 0.00 W/m2
17:54 30.1 °F 27.8 °F 29.99 in South 4.6 mph 1.6 mph 91% 0.00 in 0.00 W/m2
17:59 30.1 °F 27.8 °F 30.00 in SSW 5.8 mph 3.7 mph 91% 0.00 in 0.00 W/m2
18:04 30.1 °F 27.8 °F 29.99 in SSW 8.1 mph 2.7 mph 91% 0.00 in 0.00 W/m2
18:10 30.1 °F 27.8 °F 30.00 in SW 5.8 mph 3.9 mph 91% 0.00 in 0.00 W/m2
18:14 30.1 °F 27.8 °F 30.00 in SSW 5.0 mph 5.6 mph 91% 0.00 in 0.00 W/m2
18:19 30.2 °F 27.9 °F 29.99 in SSW 3.5 mph 0.8 mph 91% 0.00 in 0.00 W/m2
18:24 30.2 °F 27.9 °F 29.99 in SW 5.8 mph 1.7 mph 91% 0.00 in 0.00 W/m2
18:30 30.2 °F 27.9 °F 29.99 in SSW 5.8 mph 4.2 mph 91% 0.00 in 0.00 W/m2
18:34 30.1 °F 27.8 °F 30.00 in SW 7.0 mph 5.5 mph 91% 0.00 in 0.00 W/m2
18:40 30.1 °F 27.8 °F 29.99 in SSW 6.0 mph 2.4 mph 91% 0.00 in 0.00 W/m2
18:44 30.1 °F 27.8 °F 29.99 in SSW 6.9 mph 2.8 mph 91% 0.00 in 0.00 W/m2
18:49 30.1 °F 27.8 °F 29.99 in SSW 3.5 mph 2.1 mph 91% 0.00 in 0.00 W/m2
18:54 30.1 °F 27.8 °F 29.99 in SSW 6.9 mph 4.6 mph 91% 0.00 in 0.00 W/m2
18:59 30.1 °F 27.8 °F 29.99 in SSW 6.0 mph 3.2 mph 91% 0.00 in 0.00 W/m2
19:04 30.1 °F 27.8 °F 29.99 in SW 5.0 mph 3.9 mph 91% 0.00 in 0.00 W/m2
19:09 30.0 °F 27.7 °F 29.99 in SSW 5.8 mph 1.9 mph 91% 0.00 in 0.00 W/m2
19:14 30.1 °F 27.8 °F 29.99 in SSW 6.9 mph 4.0 mph 91% 0.00 in 0.00 W/m2
19:19 30.0 °F 27.7 °F 29.99 in SW 3.5 mph 2.8 mph 91% 0.00 in 0.00 W/m2
19:24 30.0 °F 27.7 °F 29.98 in SSW 4.6 mph 1.6 mph 91% 0.00 in 0.00 W/m2
19:29 30.0 °F 27.7 °F 29.98 in SSW 6.9 mph 2.0 mph 91% 0.00 in 0.00 W/m2
19:35 29.8 °F 27.5 °F 29.98 in SW 3.5 mph 2.2 mph 91% 0.00 in 0.00 W/m2
19:39 29.7 °F 27.4 °F 29.98 in SSW 3.5 mph 2.1 mph 91% 0.00 in 0.00 W/m2
19:44 29.6 °F 27.3 °F 29.98 in SSW 3.5 mph 2.3 mph 91% 0.00 in 0.00 W/m2
19:49 29.4 °F 27.1 °F 29.98 in SSW 8.1 mph 1.3 mph 91% 0.00 in 0.00 W/m2
19:54 29.3 °F 27.0 °F 29.98 in SSW 9.2 mph 4.2 mph 91% 0.00 in 0.00 W/m2
19:59 29.2 °F 26.9 °F 29.98 in SSW 8.1 mph 5.4 mph 91% 0.00 in 0.00 W/m2
20:04 29.1 °F 26.8 °F 29.98 in South 5.0 mph 3.8 mph 91% 0.00 in 0.00 W/m2
20:09 29.0 °F 26.7 °F 29.98 in SSW 2.0 mph 1.2 mph 91% 0.00 in 0.00 W/m2
20:14 28.9 °F 26.6 °F 29.98 in SSW 3.5 mph 2.2 mph 91% 0.00 in 0.00 W/m2
20:19 28.8 °F 26.5 °F 29.98 in SSW 6.9 mph 1.5 mph 91% 0.00 in 0.00 W/m2
20:24 28.6 °F 26.3 °F 29.98 in SW 8.1 mph 3.6 mph 91% 0.00 in 0.00 W/m2
20:29 28.6 °F 26.6 °F 29.98 in SSW 3.5 mph 3.2 mph 92% 0.00 in 0.00 W/m2
20:34 28.6 °F 26.6 °F 29.98 in SSW 5.8 mph 3.0 mph 92% 0.00 in 0.00 W/m2
20:39 28.6 °F 26.6 °F 29.98 in SW 6.9 mph 4.9 mph 92% 0.00 in 0.00 W/m2
20:44 28.7 °F 26.7 °F 29.98 in SSE 8.0 mph 4.0 mph 92% 0.00 in 0.00 W/m2
20:49 28.6 °F 26.6 °F 29.98 in SSW 6.0 mph 5.3 mph 92% 0.00 in 0.00 W/m2
20:54 28.7 °F 26.7 °F 29.98 in South 6.9 mph 2.7 mph 92% 0.00 in 0.00 W/m2
20:59 28.7 °F 26.7 °F 29.98 in South 8.1 mph 4.1 mph 92% 0.00 in 0.00 W/m2
21:04 28.8 °F 26.8 °F 29.99 in WSW 5.8 mph 4.2 mph 92% 0.00 in 0.00 W/m2
21:09 28.9 °F 26.9 °F 29.98 in SSW 8.1 mph 5.4 mph 92% 0.00 in 0.00 W/m2
21:14 29.0 °F 27.0 °F 29.98 in SSW 11.5 mph 6.9 mph 92% 0.00 in 0.00 W/m2
21:19 29.0 °F 27.0 °F 29.99 in North 8.1 mph 4.6 mph 92% 0.00 in 0.00 W/m2
21:24 29.1 °F 27.1 °F 29.99 in WSW 5.0 mph 5.8 mph 92% 0.00 in 0.00 W/m2
21:29 29.2 °F 27.2 °F 29.98 in SW 9.2 mph 5.6 mph 92% 0.00 in 0.00 W/m2
21:34 29.1 °F 27.1 °F 29.98 in SSW 11.5 mph 7.1 mph 92% 0.00 in 0.00 W/m2
21:40 29.1 °F 27.1 °F 29.98 in SSW 12.7 mph 8.2 mph 92% 0.00 in 0.00 W/m2
21:45 28.9 °F 26.9 °F 29.98 in SW 14.0 mph 7.3 mph 92% 0.00 in 0.00 W/m2
21:50 28.8 °F 26.8 °F 29.98 in SW 8.1 mph 4.8 mph 92% 0.00 in 0.00 W/m2
21:54 28.8 °F 26.8 °F 29.98 in WSW 11.5 mph 6.1 mph 92% 0.00 in 0.00 W/m2
21:59 28.6 °F 26.6 °F 29.98 in SSW 11.5 mph 4.7 mph 92% 0.00 in 0.00 W/m2
22:04 28.5 °F 26.5 °F 29.98 in WSW 10.4 mph 5.9 mph 92% 0.00 in 0.00 W/m2
22:09 28.4 °F 26.4 °F 29.97 in SW 6.9 mph 2.9 mph 92% 0.00 in 0.00 W/m2
22:14 28.3 °F 26.3 °F 29.97 in South 6.9 mph 5.5 mph 92% 0.00 in 0.00 W/m2
22:19 28.2 °F 26.2 °F 29.97 in SSW 10.4 mph 4.8 mph 92% 0.00 in 0.00 W/m2
22:24 28.1 °F 26.1 °F 29.96 in South 8.1 mph 5.5 mph 92% 0.00 in 0.00 W/m2
22:30 28.0 °F 26.0 °F 29.97 in WSW 9.2 mph 4.5 mph 92% 0.00 in 0.00 W/m2
22:34 28.0 °F 26.0 °F 29.96 in South 10.4 mph 7.3 mph 92% 0.00 in 0.00 W/m2
22:39 27.9 °F 25.9 °F 29.96 in South 9.2 mph 4.0 mph 92% 0.00 in 0.00 W/m2
22:44 27.8 °F 25.8 °F 29.96 in SSW 8.1 mph 6.0 mph 92% 0.00 in 0.00 W/m2
22:49 27.6 °F 25.3 °F 29.96 in South 10.4 mph 3.0 mph 91% 0.00 in 0.00 W/m2
22:54 27.3 °F 25.0 °F 29.96 in SSW 11.5 mph 5.1 mph 91% 0.00 in 0.00 W/m2
22:59 27.0 °F 25.0 °F 29.96 in South 5.8 mph 3.3 mph 92% 0.00 in 0.00 W/m2
23:04 26.8 °F 24.5 °F 29.95 in South 8.1 mph 5.7 mph 91% 0.00 in 0.00 W/m2
23:09 26.6 °F 24.6 °F 29.95 in SSW 10.4 mph 4.5 mph 92% 0.00 in 0.00 W/m2
23:14 26.3 °F 24.0 °F 29.95 in SSW 5.8 mph 4.2 mph 91% 0.00 in 0.00 W/m2
23:20 26.2 °F 24.2 °F 29.94 in SW 8.1 mph 4.3 mph 92% 0.00 in 0.00 W/m2
23:24 26.0 °F 24.0 °F 29.94 in South 10.4 mph 3.6 mph 92% 0.00 in 0.00 W/m2
23:29 25.9 °F 23.9 °F 29.93 in South 10.4 mph 4.7 mph 92% 0.00 in 0.00 W/m2
23:35 25.8 °F 23.8 °F 29.93 in South 5.8 mph 3.0 mph 92% 0.00 in 0.00 W/m2
23:39 25.6 °F 23.6 °F 29.93 in SSW 6.9 mph 3.4 mph 92% 0.00 in 0.00 W/m2
23:44 25.5 °F 23.5 °F 29.92 in South 6.9 mph 3.2 mph 92% 0.00 in 0.00 W/m2
23:50 25.4 °F 23.4 °F 29.92 in South 7.0 mph 3.8 mph 92% 0.00 in 0.00 W/m2
23:54 25.4 °F 23.4 °F 29.93 in SSW 4.0 mph 3.2 mph 92% 0.00 in 0.00 W/m2
23:59 25.4 °F 23.4 °F 29.92 in South 5.8 mph 4.2 mph 92% 0.00 in 0.00 W/m2
Bourbonnais, Illinois, USA
Compliments of Weather Underground - 4 mb